Weather History for Bartow, FL

Change the Weather History Date:

Tuesday, October 23, 2012

  Actual Average Record
Temperature  
Mean Temperature 72 °F -  
Max Temperature 80 °F 84 °F 91 °F (1950)
Min Temperature 64 °F 63 °F 48 °F (1976)
Cooling Degree Days 7    
Growing Degree Days 22 (Base 50)    
Moisture  
Dew Point 62 °F    
Average Humidity 71    
Maximum Humidity 88    
Minimum Humidity 54    
Precipitation  
Precipitation 0.00 in - - ()
Sea Level Pressure  
Sea Level Pressure 30.03 in    
Wind  
Wind Speed 8 mph (NE)    
Max Wind Speed 15 mph    
Max Gust Speed 23 mph    
Visibility 10 miles    
Events      
Averages and records for this station are not official NWS values.
T = Trace of Precipitation, MM = Missing Value Source: NWS Daily Summary

Daily Weather History Graph

Daily Weather History Graph

Search for Another Location

Airport:

Trip Planner

Search our weather history database for the weather conditions in past years. The results will help you decide how hot, cold, wet, or windy it might be!

Date:

Astronomy

Oct. 23, 2012 Rise Set
Actual Time 7:32 AM EDT 6:49 PM EDT
Civil Twilight 7:08 AM EDT 7:13 PM EDT
Nautical Twilight 6:41 AM EDT 7:41 PM EDT
Astronomical Twilight 6:13 AM EDT 8:08 PM EDT
Moon 3:06 PM EDT (10/23) 1:53 AM EDT (10/23)
Length of Visible Light 12h 04m
Length of Day
11h 17m
Waxing Gibbous, 66% of the Moon is Illuminated
Oct 23
Waxing Gibbous
Oct 29
Full
Nov 6
Last Quarter
Nov 13
New
Nov 20
First Quarter

Hourly Weather History & Observations

Time (EDT) Temp. Heat Index Dew Point Humidity Pressure Visibility Wind Dir Wind Speed Gust Speed Precip Events Conditions
12:15 AM 69.8 °F - 60.8 °F 73% 30.08 in 10.0 mi NE 6.9 mph - N/A   Clear
12:35 AM 69.8 °F - 60.8 °F 73% 30.08 in 10.0 mi NNE 6.9 mph - N/A   Clear
12:55 AM 69.8 °F - 60.8 °F 73% 30.07 in 10.0 mi NNE 8.1 mph - N/A   Clear
1:15 AM 68.0 °F - 60.8 °F 78% 30.07 in 10.0 mi NNE 6.9 mph - N/A   Clear
1:35 AM 68.0 °F - 60.8 °F 78% 30.07 in 10.0 mi NNE 6.9 mph - N/A   Clear
2:15 AM 68.0 °F - 60.8 °F 78% 30.06 in 10.0 mi NNE 6.9 mph - N/A   Clear
2:35 AM 68.0 °F - 60.8 °F 78% 30.05 in 10.0 mi NNE 6.9 mph - N/A   Clear
2:55 AM 66.2 °F - 60.8 °F 83% 30.05 in 10.0 mi NNE 6.9 mph - N/A   Clear
3:35 AM 66.2 °F - 60.8 °F 83% 30.03 in 10.0 mi NNE 6.9 mph - N/A   Clear
3:55 AM 66.2 °F - 60.8 °F 83% 30.03 in 10.0 mi NNE 6.9 mph - N/A   Clear
4:15 AM 66.2 °F - 60.8 °F 83% 30.03 in 10.0 mi NNE 6.9 mph - N/A   Clear
4:35 AM 66.2 °F - 60.8 °F 83% 30.02 in 10.0 mi NNE 5.8 mph - N/A   Clear
4:55 AM 64.4 °F - 60.8 °F 88% 30.03 in 10.0 mi NNE 5.8 mph - N/A   Clear
5:15 AM 66.2 °F - 60.8 °F 83% 30.03 in 10.0 mi NNE 5.8 mph - N/A   Clear
5:35 AM 66.2 °F - 60.8 °F 83% 30.03 in 10.0 mi NNE 6.9 mph - N/A   Clear
5:55 AM 66.2 °F - 60.8 °F 83% 30.04 in 10.0 mi North 5.8 mph - N/A   Clear
6:15 AM 66.2 °F - 60.8 °F 83% 30.04 in 10.0 mi North 5.8 mph - N/A   Scattered Clouds
6:55 AM 66.2 °F - 62.6 °F 88% 30.04 in 10.0 mi North 5.8 mph - N/A   Mostly Cloudy
7:30 AM 66.2 °F - 62.6 °F 88% 30.05 in 10.0 mi NNE 4.6 mph - N/A   Scattered Clouds
8:50 AM 69.8 °F - 60.8 °F 73% 30.05 in 12.0 mi NE 8.1 mph - N/A   Partly Cloudy
9:50 AM 75.2 °F - 62.6 °F 65% 30.06 in 12.0 mi NE 8.1 mph - N/A   Mostly Cloudy
10:50 AM 78.8 °F - 62.6 °F 57% 30.06 in 15.0 mi ENE 9.2 mph - N/A   Scattered Clouds
11:52 AM 80.6 °F 81.8 °F 62.6 °F 54% 30.05 in 15.0 mi ENE 11.5 mph - N/A   Mostly Cloudy
12:53 PM 80.6 °F 81.8 °F 62.6 °F 54% 30.04 in 12.0 mi NE 11.5 mph - N/A   Overcast
1:50 PM 80.6 °F 81.8 °F 62.6 °F 54% 30.02 in 12.0 mi ENE 13.8 mph - N/A   Overcast
3:35 PM 80.6 °F 81.8 °F 62.6 °F 54% 29.99 in 8.0 mi NE 15.0 mph 18.4 mph N/A   Mostly Cloudy
3:55 PM 80.6 °F 81.8 °F 62.6 °F 54% 29.99 in 9.0 mi NE 12.7 mph 23.0 mph N/A   Mostly Cloudy
4:15 PM 80.6 °F 81.8 °F 62.6 °F 54% 29.99 in 9.0 mi NE 15.0 mph - N/A   Mostly Cloudy
4:35 PM 80.6 °F 81.8 °F 62.6 °F 54% 29.99 in 8.0 mi NE 13.8 mph 18.4 mph N/A   Scattered Clouds
4:55 PM 80.6 °F 81.8 °F 62.6 °F 54% 30.00 in 10.0 mi ENE 12.7 mph - N/A   Mostly Cloudy
5:15 PM 78.8 °F - 62.6 °F 57% 29.99 in 10.0 mi NE 10.4 mph - N/A   Mostly Cloudy
5:35 PM 78.8 °F - 62.6 °F 57% 30.00 in 9.0 mi ENE 12.7 mph - N/A   Mostly Cloudy
5:55 PM 78.8 °F - 62.6 °F 57% 30.00 in 9.0 mi ENE 10.4 mph - N/A   Partly Cloudy
6:15 PM 77.0 °F - 62.6 °F 61% 30.00 in 9.0 mi ENE 12.7 mph 17.3 mph N/A   Partly Cloudy
6:35 PM 77.0 °F - 62.6 °F 61% 30.00 in 9.0 mi ENE 12.7 mph - N/A   Scattered Clouds
6:55 PM 75.2 °F - 62.6 °F 65% 30.01 in 9.0 mi ENE 10.4 mph - N/A   Mostly Cloudy
7:15 PM 75.2 °F - 62.6 °F 65% 30.02 in 10.0 mi ENE 8.1 mph - N/A   Partly Cloudy
7:35 PM 73.4 °F - 62.6 °F 69% 30.03 in 10.0 mi ENE 8.1 mph - N/A   Mostly Cloudy
7:55 PM 73.4 °F - 62.6 °F 69% 30.03 in 10.0 mi ENE 6.9 mph - N/A   Scattered Clouds
8:15 PM 73.4 °F - 62.6 °F 69% 30.03 in 10.0 mi ENE 8.1 mph - N/A   Clear
8:35 PM 73.4 °F - 62.6 °F 69% 30.04 in 10.0 mi NE 6.9 mph - N/A   Clear
8:55 PM 71.6 °F - 62.6 °F 73% 30.04 in 10.0 mi NE 8.1 mph - N/A   Clear
9:15 PM 71.6 °F - 62.6 °F 73% 30.04 in 10.0 mi NE 6.9 mph - N/A   Clear
9:35 PM 71.6 °F - 62.6 °F 73% 30.05 in 10.0 mi NE 6.9 mph - N/A   Clear
9:55 PM 71.6 °F - 62.6 °F 73% 30.05 in 10.0 mi NE 6.9 mph - N/A   Clear
10:15 PM 71.6 °F - 62.6 °F 73% 30.05 in 10.0 mi NE 5.8 mph - N/A   Clear
10:35 PM 71.6 °F - 62.6 °F 73% 30.05 in 10.0 mi NNE 5.8 mph - N/A   Clear
10:55 PM 69.8 °F - 62.6 °F 78% 30.05 in 10.0 mi NNE 5.8 mph - N/A   Clear
11:15 PM 69.8 °F - 62.6 °F 78% 30.05 in 10.0 mi NNE 5.8 mph - N/A   Clear
11:35 PM 69.8 °F - 62.6 °F 78% 30.05 in 10.0 mi NNE 4.6 mph - N/A   Clear
11:55 PM 68.0 °F - 62.6 °F 83% 30.04 in 10.0 mi NE 3.5 mph - N/A   Clear